Location: Canazei
(46.4667°N, 11.7667°E)
Time: 02:45:19
(UTC+00:00)

Envisat - Pass Details

Date: 28 September 2021
Orbit: 764 x 766 km, 98.2° (Epoch: 23 October)

Event Time Altitude Azimuth Distance (km) Brightness Sun altitude
Rises 03:44:57 0° 21° (NNE) 3,242 6.7 -15.0°
Reaches altitude 10° 03:47:27 10° 30° (NNE) 2,311 6.1 -14.5°
Maximum altitude 03:52:07 35° 96° (E) 1,217 4.7 -13.8°
Drops below altitude 10° 03:56:44 10° 162° (SSE) 2,294 5.6 -13.0°
Sets 03:59:12 0° 171° (S) 3,215 6.2 -12.6°
